EW4366 Weather Reports


time (UTC)temp
C
wind
direction
speed
KPH
gust
KPH
rain 1hr
cm
rain 24hr
cm
rain mn
cm
humidity
%
barometer
mb
20260510213018 25 0.0 0.0 0.00 0.00 0.00 45 1014.0
20260510212017 25 0.0 0.0 0.00 0.00 0.00 46 1014.1
20260510211017 25 0.0 3.2 0.00 0.00 0.00 44 1014.1
20260510210017 24 293 3.2 6.4 0.00 0.00 0.00 46 1014.3
20260510205017 24 0.0 3.2 0.00 0.00 0.00 46 1014.4
20260510204017 24 0.0 1.6 0.00 0.00 0.00 44 1014.5
20260510203018 24 0.0 0.0 0.00 0.00 0.00 42 1014.3
20260510202017 25 0.0 0.0 0.00 0.00 0.00 41 1014.1
20260510201017 25 0.0 0.0 0.00 0.00 0.00 40 1014.2
20260510200037 25 248 3.2 6.4 0.00 0.00 0.00 40 1014.2
20260510195017 26 270 1.6 3.2 0.00 0.00 0.00 40 1014.2
20260510194017 26 180 1.6 6.4 0.00 0.00 0.00 40 1014.3
20260510193017 26 0.0 4.8 0.00 0.00 0.00 42 1014.3
20260510192017 25 270 1.6 1.6 0.00 0.00 0.00 40 1014.3
20260510191057 26 270 4.8 8.0 0.00 0.00 0.00 42 1014.4
20260510190037 26 203 1.6 6.4 0.00 0.00 0.00 39 1014.4
20260510185017 26 203 3.2 9.7 0.00 0.00 0.00 40 1014.5
20260510184017 25 315 3.2 8.0 0.00 0.00 0.00 42 1014.5
20260510183017 25 203 1.6 6.4 0.00 0.00 0.00 42 1014.5
20260510182017 25 315 1.6 9.7 0.00 0.00 0.00 42 1014.7
20260510181017 25 0.0 3.2 0.00 0.00 0.00 43 1014.8
20260510180017 25 270 4.8 9.7 0.00 0.00 0.00 44 1014.9
20260510175017 25 0 3.2 9.7 0.00 0.00 0.00 46 1015.2
20260510174017 25 203 3.2 4.8 0.00 0.00 0.00 43 1015.2
20260510173017 25 248 1.6 4.8 0.00 0.00 0.00 43 1015.2
20260510172017 25 270 1.6 4.8 0.00 0.00 0.00 44 1015.4
20260510171017 25 0.0 3.2 0.00 0.00 0.00 44 1015.5
20260510170017 25 270 1.6 8.0 0.00 0.00 0.00 43 1015.5
20260510165017 24 225 3.2 8.0 0.00 0.00 0.00 44 1015.5
20260510164017 24 0.0 0.0 0.00 0.00 0.00 42 1015.5
20260510163016 24 0.0 1.6 0.00 0.00 0.00 45 1015.7
20260510162037 23 248 1.6 3.2 0.00 0.00 0.00 48 1015.7
20260510161017 24 225 4.8 11.3 0.00 0.00 0.00 46 1015.8
20260510160016 23 248 1.6 6.4 0.00 0.00 0.00 47 1015.9
20260510155037 23 270 6.4 8.0 0.00 0.00 0.00 48 1016.0
20260510154016 23 293 3.2 4.8 0.00 0.00 0.00 49 1016.0
20260510153017 23 0.0 1.6 0.00 0.00 0.00 48 1016.1
20260510152017 23 338 1.6 6.4 0.00 0.00 0.00 50 1016.2
20260510151017 22 0.0 1.6 0.00 0.00 0.00 54 1016.0
20260510150016 22 0.0 0.0 0.00 0.00 0.00 55 1016.0
20260510145016 22 0.0 3.2 0.00 0.00 0.00 56 1016.0
20260510144016 21 270 1.6 11.3 0.00 0.00 0.00 57 1016.2
20260510143017 21 0.0 1.6 0.00 0.00 0.00 63 1016.0
20260510142017 20 0.0 0.0 0.00 0.00 0.00 68 1016.0
20260510141016 18 0.0 0.0 0.00 0.00 0.00 72 1016.0
20260510140016 17 0.0 0.0 0.00 0.00 0.00 78 1016.2
20260510135037 16 113 1.6 3.2 0.00 0.00 0.00 80 1016.1
20260510134016 15 0.0 0.0 0.00 0.00 0.00 83 1016.2
20260510133016 13 0.0 3.2 0.00 0.00 0.00 86 1016.3
20260510132016 12 0.0 0.0 0.00 0.00 0.00 88 1016.3
20260510131016 11 0.0 0.0 0.00 0.00 0.00 86 1016.1
20260510130016 10 0.0 3.2 0.00 0.00 0.00 85 1016.0
20260510125016 10 0.0 1.6 0.00 0.00 0.00 85 1016.1
20260510124016 9 0.0 0.0 0.00 0.00 0.00 85 1016.2
20260510123016 9 0.0 0.0 0.00 0.00 0.00 85 1016.1
20260510122016 9 0.0 0.0 0.00 0.00 0.00 85 1016.0
20260510121016 8 0.0 0.0 0.00 0.00 0.00 85 1015.8
20260510120016 8 0.0 0.0 0.00 0.00 0.00 85 1015.8
20260510115017 8 0.0 0.0 0.00 0.00 0.00 86 1015.8
20260510114016 7 0.0 0.0 0.00 0.00 0.00 86 1016.0
20260510113016 7 0.0 0.0 0.00 0.00 0.00 86 1015.9
20260510112016 7 0.0 0.0 0.00 0.00 0.00 86 1015.8
20260510111016 7 0.0 0.0 0.00 0.00 0.00 86 1015.5
20260510110016 7 0.0 0.0 0.00 0.00 0.00 86 1015.4
20260510105016 7 0.0 0.0 0.00 0.00 0.00 86 1015.2
20260510104016 7 0.0 0.0 0.00 0.00 0.00 86 1015.1
20260510103016 7 0.0 0.0 0.00 0.00 0.00 87 1014.8
20260510102016 7 0.0 0.0 0.00 0.00 0.00 87 1014.8
20260510101016 7 0.0 0.0 0.00 0.00 0.00 87 1014.7
20260510100016 7 0.0 0.0 0.00 0.00 0.00 87 1014.7
20260510095016 7 0.0 0.0 0.00 0.00 0.00 87 1014.5
20260510094016 7 0.0 0.0 0.00 0.00 0.00 87 1014.6
20260510093016 7 0.0 0.0 0.00 0.00 0.00 87 1014.7
20260510092016 7 0.0 0.0 0.00 0.00 0.00 87 1014.5
20260510091016 7 0.0 0.0 0.00 0.00 0.00 87 1014.4
20260510090016 7 0.0 0.0 0.00 0.00 0.00 87 1014.3
20260510085016 6 0.0 0.0 0.00 0.00 0.00 87 1014.2
20260510084016 6 0.0 0.0 0.00 0.00 0.00 88 1014.1
20260510083016 6 0.0 0.0 0.00 0.00 0.00 88 1014.1
20260510082016 6 0.0 0.0 0.00 0.00 0.00 88 1014.0
20260510081016 7 0.0 0.0 0.00 0.00 0.00 88 1013.8
20260510080016 7 0.0 0.0 0.00 0.00 0.00 88 1013.7
20260510075016 7 0.0 0.0 0.00 0.00 0.00 88 1013.6
20260510074016 7 0.0 0.0 0.00 0.00 0.00 88 1013.5
20260510073016 7 0.0 0.0 0.00 0.00 0.00 88 1013.4
20260510072016 7 0.0 0.0 0.00 0.00 0.00 88 1013.3
20260510071016 7 0.0 0.0 0.00 0.00 0.00 88 1013.4
20260510070036 7 0.0 0.0 0.00 0.00 0.00 88 1013.4
20260510065016 7 0.0 0.0 0.00 0.00 0.00 88 1013.4
20260510064036 7 0.0 0.0 0.00 0.00 0.00 88 1013.2
20260510063016 7 0.0 0.0 0.00 0.00 0.00 88 1013.3
20260510062016 8 0.0 0.0 0.00 0.00 0.00 88 1013.4
20260510061036 8 0.0 0.0 0.00 0.00 0.00 88 1013.5
20260510060016 8 0.0 0.0 0.00 0.00 0.00 88 1013.3
20260510055036 8 0.0 0.0 0.00 0.00 0.00 88 1013.2
20260510054016 8 0.0 0.0 0.00 0.00 0.00 88 1013.4
20260510053016 8 0.0 0.0 0.00 0.00 0.00 88 1013.5
20260510052016 8 0.0 0.0 0.00 0.00 0.00 88 1013.5
20260510051016 9 0.0 0.0 0.00 0.00 0.00 88 1013.5
20260510050016 9 0.0 0.0 0.00 0.00 0.00 88 1013.5
20260510045015 9 0.0 0.0 0.00 0.00 0.00 88 1013.5
20260510044016 9 0.0 0.0 0.00 0.00 0.00 88 1013.4
20260510043016 10 0.0 0.0 0.00 0.00 0.00 88 1013.3
20260510042036 10 0.0 0.0 0.00 0.00 0.00 87 1013.4
20260510041015 10 0.0 0.0 0.00 0.00 0.00 87 1013.3
20260510040016 10 0.0 0.0 0.00 0.00 0.00 87 1013.2
20260510035016 10 0.0 0.0 0.00 0.00 0.00 87 1013.1
20260510034015 10 0.0 0.0 0.00 0.00 0.00 87 1012.9
20260510033016 11 0.0 0.0 0.00 0.00 0.00 86 1012.9
20260510032036 11 0.0 0.0 0.00 0.00 0.00 86 1012.9
20260510031016 11 0.0 0.0 0.00 0.00 0.00 85 1012.8
20260510030015 11 0.0 0.0 0.00 0.00 0.00 84 1012.9
20260510025015 12 0.0 0.0 0.00 0.00 0.00 84 1012.9
20260510024015 12 0.0 0.0 0.00 0.00 0.00 83 1012.8
20260510023016 12 0.0 0.0 0.00 0.00 0.00 82 1012.4
20260510022015 12 0.0 0.0 0.00 0.00 0.00 81 1012.4
20260510021036 12 0.0 0.0 0.00 0.00 0.00 80 1012.1
20260510020015 13 0.0 0.0 0.00 0.00 0.00 80 1011.9
20260510015015 13 0.0 0.0 0.00 0.00 0.00 78 1011.8
20260510014015 13 0.0 0.0 0.00 0.00 0.00 77 1011.4
20260510013015 14 0.0 0.0 0.00 0.00 0.00 76 1011.2
20260510012015 15 0.0 0.0 0.00 0.00 0.00 74 1011.0
20260510011015 15 0.0 0.0 0.00 0.00 0.00 72 1010.7
20260510010015 16 0.0 0.0 0.00 0.00 0.00 69 1010.5
20260510005016 16 0.0 0.0 0.00 0.00 0.00 68 1010.5
20260510004015 17 0.0 0.0 0.00 0.00 0.00 64 1010.3
20260510003015 17 0.0 0.0 0.00 0.00 0.00 62 1010.4
20260510002015 18 0.0 0.0 0.00 0.00 0.00 60 1010.3
20260510001015 18 0.0 0.0 0.00 0.00 0.00 58 1010.2
20260510000016 19 0.0 0.0 0.00 0.00 0.00 56 1010.0
20260509235015 20 0.0 0.0 0.00 0.00 0.00 55 1010.0
20260509234015 20 0.0 0.0 0.00 0.00 0.00 53 1009.8
20260509233015 20 0.0 0.0 0.00 0.00 0.00 53 1009.7
20260509232019 21 0.0 0.0 0.00 0.00 0.00 52 1009.6
20260509231038 21 0.0 0.0 0.00 0.00 0.00 52 1009.7
20260509230018 21 0.0 0.0 0.00 0.00 0.00 51 1009.6
20260509225017 21 0.0 3.2 0.00 0.00 0.00 51 1009.7
20260509224017 21 0.0 0.0 0.00 0.00 0.00 50 1009.6
20260509223017 21 0.0 1.6 0.00 0.00 0.00 50 1009.6
20260509222017 21 315 1.6 3.2 0.00 0.00 0.00 50 1009.8
20260509221017 21 270 1.6 3.2 0.00 0.00 0.00 49 1009.9
20260509220019 21 0.0 1.6 0.00 0.00 0.00 51 1009.8
20260509215037 21 0.0 0.0 0.00 0.00 0.00 50 1009.8
20260509214017 21 270 3.2 9.7 0.00 0.00 0.00 49 1009.8